"Pseudo-MPEC" for or02013

Created 2023 Jan 26 6:22:25 UT using Find_Orb

Click here for an explanation of pseudo-MPECs

 
 Astrometry: 
     or02013*KC2023 01 20rS%h9N8Rf=`1(xdvLw*om\L'Li-q.uia!1U)Is[jkv!sN?I=.IdjJ43
     or02013 KC2023 01 20vEeR3N(W5]hDf8r\cR7\W_[NmAstrometry^8]Z8SDANLx=/fbPXJ43
     or02013 KC2023 01 20Z,nC^,Y=rSEf87#LO1Lt,*rdJZ:]nFQk^7$V.vdSktNt+Un7/Iu'J43
     or02013 KC2023 01 213E;M\/M4Te%XA4/+gKa2yja^y/u.XJ6kJQ,;Eto0(,47kU-Bpw)TJ43
     or02013 KC2023 01 21v8*^qTtb$[1uZ+Dk_LQs=B)4OK*T^Vlh;cwi!IafDALif1oq_3:hJ43
     or02013 KC2023 01 21GC9+$GC49f)Wcs]Bx+AsW0:B%1'l%om#.R'UvoIy%L=Cno(iB9S\J43
     or02013 KC2023 01 23\3nc%MYMPA%1Q!'T=4vRQtjBw%R0M;jN=QpBb!DCU;#i8Utf0tBTL01
     or02013 KC2023 01 23^Qujb,R#Zo.*7J+5n:+q)w'#c7Q+EHDvC48FtD#U919+5Et]_%UCL01
     or02013 KC2023 01 23V6?'R%LIHw7aw2+gyeZ^U%28?lGH]hdHm6p9-TQ?_,`8qAPLc?sUL01
     or02013 KC2023 01 23f5#redacted;J,EhTlYWbr1JLbien*$@K.l%qeyLRhPtODOB#`^uL01
     or02013  C2023 01 25q.GYRgN\EnaS:@K?QXb[4\1XeS\Kk1B3,*Byx]Rl#WLw/^_jrA!+654
     or02013  C2023 01 25-.AclickXRUT?W`s;\rherem?K_B(2skJX\CT](aFIsUNTu_nHPA654
     or02013  C2023 01 25GIF-E(s?tCwV@QmHlmK@m[nG0.oXbyy0HEqHNDgforgdXbp%ds6\654
     or02013 KC2023 01 26fK+h[979!kmeml\;t(vHG.0=4N3adp'i!IJ:;do,1[y#q;xxCtFD858
     or02013 KC2023 01 26]0;K^O2#EmlFq=:2[cFxqIp2Gn0vnTYXJ^pyJsD=@D478r!rrjAJ858
     or02013 KC2023 01 26VCr@s@O,xyjnx:Bv1btFy2KgsexplanationCA=dksacnZ]Cf[BV858

Station data:
(654) Table Mountain Observatory, Wrightwood-PHMC  (N34.381820 W117.681590)
   US/California.  Observers P. Choi, N. Saini, C. Zhai, R. Trahan, M. Shao.
(858) Tebbutt Observatory, Edgewood  (N35.093869 W106.220000)  US/New Mexico.
    Observer F. B. Zoltowski. 0.16-m refractor + CCD0.51-m Schmidt-Cassegrain
   + CCD.
(J43) Oukaïmeden Observatory, Marrakech  (N31.206437 W7.866460)  Morocco.
   Observer C. Rinner. Measurers C. Rinner, M. Ory. 0.5-m f/3 reflector + CCD.
(L01) Višnjan Observatory, Tičan  (N45.290897 E13.749300)  Croatia.
   Observers K. Korlević, D. Pujagic, V. Dobos. Measurers D. Pujagic, K.
   Korlević. 1.0-m f/2.9 reflector + CCD.

Orbital elements:  or02013
   Perihelion 2023 Jan 5.34806 +/- 0.0215 TT =  8:21:12 (JD 2459949.84806)
Epoch 2023 Jan 26.0 TT = JDT 2459970.5   Earth MOID: 0.0366   Ma: 0.0172
M  10.46873809 +/- 0.08             (J2000 ecliptic)             AutoNEOCP
n   0.50691303 +/- 0.00337          Peri.  231.86422 +/- 0.08
a   1.55780733 +/- 0.0069           Node   228.11147 +/- 0.08
e   0.3456213 +/- 0.00271           Incl.    0.44469 +/- 0.0028
P   1.94/710.17d           H 25.03  G  0.15   U  8.9
q 1.01939584 +/- 0.000292    Q 2.09621882 +/- 0.0135
From 16 observations 2023 Jan. 20-26; mean residual 0".34
Residuals in arcseconds: 
230120 J43  .59-  .15-    230123 L01  .64-  .40-    230125 654  .24+  .01+    
230120 J43  .19-  .23+    230123 L01  .12-  .95+    230126 858  .18-  .25-    
230120 J43  .56+  .12-    230123 L01  .40-  .14+    230126 858  .01+  .17-    
230121 J43  .15-  .03+    230123 L01  .25+  .41-    230126 858  .14-  .24+    
230121 J43  .04+  .12-    230125 654  .30+  .05+    
230121 J43  .70+  .02-    230125 654  .29+  .01+    

Ephemerides (geocentric):
Date (UTC) HH   RA             Dec           delta  r     elong  mag " sig PA
---- --------  ------------   ------------  ------ ------ -----  --- --------
2023 01 26 06  05 29 23.530   +17 19 07.27  .07511 1.0405 136.6 21.1 .494 129
2023 01 26 07  05 29 49.173   +17 19 30.63  .07515 1.0405 136.7 21.1 .509 128
2023 01 26 08  05 30 14.805   +17 19 53.80  .07518 1.0406 136.8 21.1 .524 127
2023 01 26 09  05 30 40.425   +17 20 16.77  .07522 1.0407 136.8 21.1 .539 126
2023 01 26 10  05 31 06.034   +17 20 39.53  .07526 1.0408 136.9 21.1 .555 125
2023 01 26 11  05 31 31.630   +17 21 02.10  .07529 1.0409 136.9 21.1 .571 124
2023 01 26 12  05 31 57.214   +17 21 24.46  .07533 1.0410 137.0 21.1 .587 123
2023 01 26 13  05 32 22.785   +17 21 46.63  .07537 1.0410 137.1 21.1 .604 122
2023 01 26 14  05 32 48.344   +17 22 08.59  .07540 1.0411 137.1 21.1 .621 121
2023 01 26 15  05 33 13.890   +17 22 30.35  .07544 1.0412 137.2 21.1 .639 120
2023 01 26 16  05 33 39.424   +17 22 51.92  .07548 1.0413 137.2 21.1 .657 119
2023 01 26 17  05 34 04.944   +17 23 13.28  .07552 1.0414 137.3 21.1 .675 118
2023 01 26 18  05 34 30.450   +17 23 34.44  .07556 1.0415 137.4 21.1 .693 118
2023 01 26 19  05 34 55.944   +17 23 55.41  .07560 1.0415 137.4 21.1 .712 117
2023 01 26 20  05 35 21.423   +17 24 16.17  .07564 1.0416 137.5 21.1 .731 116
2023 01 26 21  05 35 46.889   +17 24 36.74  .07567 1.0417 137.5 21.1 .750 115
2023 01 26 22  05 36 12.341   +17 24 57.10  .07571 1.0418 137.6 21.1 .769 115
2023 01 26 23  05 36 37.779   +17 25 17.27  .07575 1.0419 137.7 21.1 .789 114
2023 01 27 00  05 37 03.202   +17 25 37.24  .07579 1.0420 137.7 21.1 .809 114
2023 01 27 01  05 37 28.611   +17 25 57.00  .07583 1.0421 137.8 21.1 .829 113
2023 01 27 02  05 37 54.005   +17 26 16.57  .07588 1.0421 137.8 21.1 .850 113
2023 01 27 03  05 38 19.385   +17 26 35.94  .07592 1.0422 137.9 21.1 .871 112
2023 01 27 04  05 38 44.749   +17 26 55.12  .07596 1.0423 137.9 21.1 .892 112
2023 01 27 05  05 39 10.098   +17 27 14.09  .07600 1.0424 138.0 21.1 .913 111
2023 01 27 06  05 39 35.432   +17 27 32.87  .07604 1.0425 138.1 21.1 .934 111
2023 01 27 07  05 40 00.751   +17 27 51.44  .07608 1.0426 138.1 21.1 .956 110
2023 01 27 08  05 40 26.054   +17 28 09.82  .07612 1.0427 138.2 21.1 .978 110
2023 01 27 09  05 40 51.341   +17 28 28.01  .07617 1.0427 138.2 21.1 1.00 109
2023 01 27 10  05 41 16.612   +17 28 45.99  .07621 1.0428 138.3 21.1 1.02 109
2023 01 27 11  05 41 41.867   +17 29 03.78  .07625 1.0429 138.4 21.1 1.05 109
2023 01 27 12  05 42 07.106   +17 29 21.37  .07630 1.0430 138.4 21.1 1.07 108
2023 01 27 13  05 42 32.328   +17 29 38.76  .07634 1.0431 138.5 21.1 1.09 108
2023 01 27 14  05 42 57.533   +17 29 55.96  .07638 1.0432 138.5 21.1 1.11 108
2023 01 27 15  05 43 22.722   +17 30 12.96  .07643 1.0433 138.6 21.1 1.14 107
2023 01 27 16  05 43 47.894   +17 30 29.77  .07647 1.0433 138.6 21.1 1.16 107
2023 01 27 17  05 44 13.049   +17 30 46.37  .07652 1.0434 138.7 21.1 1.18 107
2023 01 27 18  05 44 38.187   +17 31 02.79  .07656 1.0435 138.8 21.1 1.21 106
2023 01 27 19  05 45 03.307   +17 31 19.01  .07661 1.0436 138.8 21.1 1.23 106
2023 01 27 20  05 45 28.410   +17 31 35.03  .07665 1.0437 138.9 21.1 1.26 106
2023 01 27 21  05 45 53.495   +17 31 50.86  .07670 1.0438 138.9 21.1 1.28 106
2023 01 27 22  05 46 18.562   +17 32 06.49  .07674 1.0439 139.0 21.1 1.31 105
2023 01 27 23  05 46 43.611   +17 32 21.93  .07679 1.0440 139.0 21.1 1.33 105
2023 01 28 00  05 47 08.642   +17 32 37.18  .07684 1.0441 139.1 21.1 1.36 105
2023 01 28 01  05 47 33.655   +17 32 52.23  .07688 1.0441 139.2 21.1 1.38 105
2023 01 28 02  05 47 58.649   +17 33 07.09  .07693 1.0442 139.2 21.1 1.41 105
2023 01 28 03  05 48 23.624   +17 33 21.75  .07698 1.0443 139.3 21.1 1.43 104
2023 01 28 04  05 48 48.581   +17 33 36.22  .07702 1.0444 139.3 21.1 1.46 104
2023 01 28 05  05 49 13.519   +17 33 50.50  .07707 1.0445 139.4 21.1 1.48 104